User: anonymous   Login
Location: Unspecified
(0.0000°N, 0.0000°E)
Time: 03:25:08
(UTC+00:00)
Language:

STARLINK-6379 - Orbit

View from above orbital plane
View from above orbital plane
View from above satellite
View from above satellite

Ground track
Ground track

The orbit is defined by the following mean orbital elements,

1 57343U          26145.66668980 +.00000000 +00000-0 +40711-3 0 00008
2 57343  42.9999 177.9767 0001046 272.8251 153.5048 15.27576916    03
Epoch (UTC): 25 May 2026 16:00:01
Eccentricity: 0.0001046
inclination: 42.9999°
perigee height: 482 km
apogee height: 484 km
right ascension of ascending node: 177.9767°
argument of perigee: 272.8251°
revolutions per day: 15.27576916
mean anomaly at epoch: 153.5048°

The dashed part of the orbit path shows where the satellite is in the earth's shadow,  

DLR